Location: Sawmill Trailhead
(33.5800°N, 116.4497°W)
Time: 18:52:37
(UTC-07:00)

Uosat F - Visible Passes

Search period start: 31 August 2015 00:00
Search period end: 10 September 2015 00:00
Orbit: 750 x 762 km, 98.7° (Epoch: 30 August)

Date Brightness Start Highest point End Pass type
(mag) Time Alt. Az. Time Alt. Az. Time Alt. Az.
31 Aug 12.9 05:18:39 10° NE 05:23:06 32° E 05:27:36 10° SSE visible
01 Sep 14.1 04:41:32 10° ENE 04:43:21 12° E 04:45:30 10° ESE visible
02 Sep 12.0 05:38:23 10° NNE 05:43:16 53° E 05:48:10 10° S visible
03 Sep 13.7 05:00:05 10° NE 05:03:41 20° E 05:07:26 10° SE visible
05 Sep 12.9 05:19:28 10° NE 05:23:55 32° E 05:28:26 10° SSE visible
06 Sep 14.1 04:42:20 10° ENE 04:44:10 12° E 04:46:21 10° ESE visible
07 Sep 12.0 05:39:12 10° NNE 05:44:05 53° E 05:49:00 10° S visible
08 Sep 13.7 05:00:53 10° NE 05:04:30 20° E 05:08:16 10° SE visible
